Location: Amberg
(48.3597°N, 14.2150°E)
Time: 19:46:05
(UTC+00:00)

Daily predictions for brighter satellites

Satellite Brightness Start Highest point End
(mag) Time Altitude Azimuth Time Altitude Azimuth Time Altitude Azimuth
Cosmos 1242 Rocket 4.1 16:08:37 10° SE 16:10:54 17° E 16:13:14 10° NE
SL-24 R/B - RUBIN 2 4.4 16:07:10 10° SW 16:12:26 74° NW 16:18:30 10° NE
Cosmos 1898 Rocket 3.8 16:09:52 10° SSW 16:15:12 76° WNW 16:20:32 10° NNE
Meteor 2-10 4.5 16:11:55 10° NNW 16:17:00 66° W 16:21:59 10° S
Cosmos 1709 Rocket 4.3 16:12:16 10° SSW 16:18:21 74° W 16:24:31 10° N
Starlink BJ 4.5 16:18:46 10° S 16:20:57 20° SE 16:23:08 10° E
Starlink AV 4.5 16:18:57 10° S 16:21:08 20° SE 16:23:20 10° E
Starlink BD 4.5 16:19:09 10° S 16:21:20 20° SE 16:23:32 10° E
Starlink BE 4.5 16:19:19 10° S 16:21:32 20° SE 16:23:45 10° E
Starlink BM 4.5 16:19:32 10° S 16:21:44 20° SE 16:23:57 10° E
Starlink AX 4.5 16:19:44 10° S 16:21:56 20° SE 16:24:09 10° E
Starlink BH 4.5 16:19:57 10° S 16:22:09 20° SE 16:24:22 10° E
Starlink AZ 4.5 16:20:08 10° S 16:22:21 20° SE 16:24:33 10° E
Starlink BG 4.4 16:20:21 10° S 16:22:34 20° SE 16:24:47 10° E
Starlink BF 4.4 16:20:32 10° S 16:22:45 20° SE 16:24:59 10° E
Starlink BL 4.4 16:20:40 10° S 16:22:54 21° SE 16:25:10 10° E
Starlink AH 4.4 16:20:53 10° S 16:23:06 21° SE 16:25:21 10° E
Starlink AC 4.4 16:21:04 10° S 16:23:19 21° SE 16:25:33 10° E
Starlink X 4.4 16:21:15 10° S 16:23:30 21° SE 16:25:45 10° E
Starlink AE 4.4 16:21:26 10° SSW 16:23:42 21° SE 16:25:59 10° E
Starlink Z 4.4 16:21:39 10° SSW 16:23:54 21° SE 16:26:09 10° E
Starlink AK 4.4 16:21:53 10° SSW 16:24:07 21° SE 16:26:23 10° E
Okean-O 2.9 16:20:04 10° SE 16:24:17 45° ENE 16:28:31 10° N
Starlink AL 4.4 16:22:04 10° SSW 16:24:20 21° SE 16:26:36 10° E
Starlink AD 4.4 16:22:13 10° SSW 16:24:29 21° SE 16:26:46 10° E
Starlink Y 4.4 16:22:38 10° SSW 16:24:54 21° SE 16:27:12 10° E
Starlink AG 4.4 16:22:50 10° SSW 16:25:06 21° SE 16:27:23 10° E
COSMO-SKYMED 1 3.7 16:21:41 10° NE 16:25:13 24° E 16:28:45 10° SSE
Starlink W 4.4 16:22:58 10° SSW 16:25:17 22° SE 16:27:34 10° E
Starlink AJ 4.4 16:23:11 10° SSW 16:25:28 21° SE 16:27:45 10° E
Starlink AM 4.4 16:23:34 10° SSW 16:25:51 22° SE 16:28:07 10° E
Starlink AP 4.4 16:23:46 10° SSW 16:26:04 22° SE 16:28:19 10° E
Alouette 2 Rocket 4.2 16:21:46 10° N 16:26:04 54° ENE 16:32:24 10° SSE
Cosmos 1937 Rocket 3.7 16:21:01 10° SSW 16:26:15 82° WNW 16:31:36 10° NNE
Starlink AA 4.3 16:23:57 10° SSW 16:26:16 22° SE 16:28:30 10° E
Starlink AF 4.3 16:24:10 10° SSW 16:26:29 22° SE 16:28:45 10° E
Starlink AB 4.3 16:24:23 10° SSW 16:26:42 22° SE 16:28:56 11° E
Starlink AN 4.3 16:24:32 10° SSW 16:26:51 22° SE 16:29:05 11° E
Okean O Rocket 3.6 16:26:37 10° SSW 16:30:38 34° W 16:34:44 10° NNW
PSLV R/B 3.9 16:26:41 10° NNE 16:30:46 89° ESE 16:34:50 10° SSW
USA 234 4.4 16:26:31 10° SSE 16:32:45 47° SW 16:39:01 10° WNW
Cosmos 1726 Rocket 4.4 16:29:18 10° NNW 16:33:35 55° W 16:37:49 10° S
COSMOS 2487 3.5 16:30:57 10° SW 16:34:18 46° WNW 16:37:41 10° N
Starlink T 4.1 16:33:23 10° SSW 16:35:51 26° SE 16:37:47 14° E
Starlink N 4.0 16:34:22 10° SSW 16:36:52 27° SE 16:38:45 14° E
Cosmos 1461 3.0 16:33:19 10° NW 16:37:36 66° NE 16:42:03 10° SE
Starlink AR 3.8 16:35:58 10° SSW 16:38:07 25° SE 16:39:36 15° E
Starlink Q 4.0 16:35:41 10° SSW 16:38:11 27° SE 16:40:03 15° E
Starlink P 4.0 16:36:47 10° SSW 16:39:19 28° SE 16:41:08 15° E
Cosmos 2082 Rocket 4.4 16:37:02 10° WNW 16:40:08 15° NW 16:43:15 10° N
Starlink U 3.9 16:37:53 10° SSW 16:40:26 28° SE 16:42:13 15° E
Cosmos 1125 Rocket 4.2 16:36:52 10° SSE 16:41:26 32° ESE 16:46:02 10° NE
Starlink B 3.9 16:39:01 10° SSW 16:41:34 29° SE 16:43:19 16° E
NOSS 0 Rocket 4.2 16:36:09 10° NNW 16:42:11 48° NE 16:48:10 10° SE
SMAP 3.6 16:37:51 10° S 16:42:28 64° WSW 16:47:07 10° NNW
Cosmos 1626 Rocket 3.9 16:38:37 10° SSE 16:42:44 43° E 16:46:51 10° NNE
Starlink D 3.8 16:41:44 10° SSW 16:44:22 31° SE 16:46:03 17° E
Starlink S 3.8 16:42:55 10° SSW 16:45:34 32° SE 16:47:13 18° E
Cosmos 2333 Rocket 2.2 16:40:08 10° NNW 16:45:54 79° ENE 16:51:36 10° SSE
CZ-2D R/B 4.4 16:43:23 10° ESE 16:46:21 22° ENE 16:49:21 10° NNE
Starlink C 3.7 16:44:04 10° SSW 16:46:43 32° SE 16:48:19 18° E
Starlink E 3.7 16:45:16 10° SSW 16:47:56 33° SE 16:49:30 19° E
Starlink J 3.7 16:46:27 10° SSW 16:49:08 34° SE 16:50:40 20° E
Starlink V 3.6 16:47:38 10° SSW 16:50:19 35° SE 16:51:49 20° E
Cosmos 2237 Rocket 2.7 16:45:10 10° NNW 16:50:23 37° NE 16:55:33 10° ESE
Meteor 1-24 Rocket 3.5 16:45:29 10° S 16:50:45 73° E 16:56:08 10° NNE
Cosmos 1340 Rocket 3.2 16:47:33 10° N 16:51:18 40° ENE 16:55:02 10° SE
Starlink H 3.6 16:48:50 10° SSW 16:51:33 36° SE 16:53:00 21° E
Starlink F 3.5 16:50:03 10° SSW 16:52:47 36° SE 16:54:11 22° E
Meteor 2-5 Rocket 3.8 16:47:40 10° SSW 16:53:12 81° WNW 16:58:48 10° N
Starlink G 3.5 16:51:15 10° SW 16:53:59 37° SE 16:55:22 22° E
Starlink L 3.5 16:52:28 10° SW 16:55:13 38° SE 16:56:33 23° E
Envisat 3.1 16:50:26 10° SSE 16:55:31 83° WSW 17:00:39 10° NNW
Starlink A 3.4 16:53:41 10° SW 16:56:27 39° SE 16:57:44 24° E
Cosmos 1674 3.7 16:53:42 10° SSW 16:57:18 47° WNW 17:00:55 10° N
Starlink R 3.4 16:54:54 10° SW 16:57:41 40° SE 16:58:56 25° E
Starlink K 3.4 16:56:06 10° SW 16:58:53 41° SE 17:00:06 26° E
Starlink M 3.3 16:57:16 10° SW 17:00:04 42° SE 17:01:14 27° E
Cosmos 1607 4.0 16:54:19 10° SSW 17:00:20 62° ESE 17:05:30 15° NE
Cosmos 1048 Rocket 3.9 16:55:52 10° NNW 17:01:03 85° ENE 17:06:11 10° SSE
Cosmos 1300 2.6 16:58:05 10° N 17:01:55 72° E 17:05:43 10° SSE
SL-14 R/B 3.2 16:59:53 10° S 17:03:53 71° E 17:07:52 10° NNE
Cosmos 1939 Rocket 3.4 17:02:10 10° SE 17:05:42 34° ENE 17:09:17 10° N
FengYun 1-2 T 4.2 17:01:08 10° SSE 17:06:45 86° ENE 17:12:27 10° NNW
SJ 16-02 3.5 17:04:05 10° WSW 17:07:42 24° NW 17:11:19 10° N
Cosmos 2184 Rocket 4.1 17:02:46 10° SSW 17:08:57 77° W 17:15:10 10° N
SL-16 R/B 3.3 17:04:41 10° N 17:09:16 24° NE 17:10:47 22° ENE
Cosmos 1271 Rocket 2.9 17:08:20 10° SSW 17:12:03 71° WNW 17:15:49 10° N
ATLAS CENTAUR R/B 3.4 17:10:18 10° N 17:12:18 13° NNE 17:12:31 13° NNE
CSL-04 Rocket 3.7 17:07:27 10° SSE 17:12:49 60° ENE 17:18:17 10° N
SKYMED 2 3.5 17:09:08 10° NNE 17:13:29 70° ESE 17:17:48 10° S
Cosmos 2219 3.8 17:09:48 10° SSE 17:14:47 34° ESE 17:17:16 23° ENE
Meteor 2-17 Rocket 4.5 17:08:53 10° S 17:14:51 56° E 17:20:51 10° NNE
Cosmos 372 Rocket 4.1 17:10:51 10° SSW 17:15:57 73° WNW 17:21:09 10° NNE
Cosmos 2154 Rocket 3.9 17:10:17 10° S 17:16:35 80° E 17:22:51 10° N
Cosmos 1241 Rocket 4.4 17:11:30 10° NW 17:17:42 69° NE 17:23:54 10° SE
Cosmos 1455 4.4 17:15:44 10° NNE 17:16:05 12° NNE 17:16:05 12° NNE
CZ-4 R/B 4.4 17:15:24 10° SSE 17:19:32 86° W 17:23:41 10° NNW
NOAA 15 4.5 17:15:42 10° SSE 17:20:56 76° ENE 17:26:14 10° NNW
Meteor 2-1 Rocket 4.0 17:16:48 10° N 17:22:20 75° ENE 17:27:50 10° SSE
ATLAS 5 CENTAUR R/B 2.7 17:18:20 10° WSW 17:22:26 40° NW 17:25:54 16° NNE
Cosmos 1812 Rocket 3.7 17:23:32 10° NNW 17:28:00 78° W 17:32:29 10° S
CZ-4 R/B 1.5 17:24:49 10° S 17:28:49 77° WSW 17:32:56 10° NNW
ADEOS Rocket 3.7 17:23:38 13° NNE 17:28:49 36° E 17:35:11 10° SSE
Cosmos 1980 3.6 17:26:25 10° NNW 17:32:08 73° ENE 17:37:49 10° SE
Cosmos 1626 2.7 17:28:55 10° SSW 17:32:33 58° WNW 17:36:15 10° N
Cosmos 2297 Rocket 2.8 17:28:28 10° SSE 17:33:28 34° ESE 17:34:16 32° E
CZ-4C R/B 3.1 17:27:57 10° NW 17:35:06 79° SW 17:43:18 10° SSE
H-2A R/B 3.5 17:37:33 19° NNE 17:37:33 19° NNE 17:39:34 10° N
YAOGAN 1 2.6 17:32:18 10° SSE 17:36:38 82° WSW 17:41:00 10° NNW
USA 116 3.1 17:37:55 65° SE 17:37:55 65° SE 17:40:54 10° S
Ariane Rocket 3.2 17:35:23 18° SE 17:38:54 46° ENE 17:43:45 10° N
USA 267 3.9 17:35:54 23° NE 17:39:35 45° N 17:45:43 10° W
YAOGAN 6 4.4 17:36:18 10° SSW 17:39:40 33° W 17:43:04 10° NNW
COSMOS 2428 3.8 17:35:34 10° NW 17:41:02 46° WSW 17:46:28 10° S
Cosmos 494 Rocket 4.1 17:38:45 10° NNW 17:43:53 74° WSW 17:48:58 10° SSE
Cosmos 2227 Rocket 2.6 17:40:01 10° S 17:45:11 38° ESE 17:45:23 38° ESE
Cosmos 1242 Rocket 4.1 17:42:18 10° SW 17:45:31 34° WNW 17:48:47 10° N
NOAA 11 4.2 17:41:07 10° SSE 17:46:37 82° WSW 17:52:10 10° NNW
Cosmos 2219 Rocket 3.6 17:41:41 10° NW 17:46:57 40° WSW 17:52:11 10° S
Cosmos 2366 rocket 4.1 17:42:16 10° SSE 17:48:09 48° E 17:54:09 10° NNE
Cosmos 2251 Rocket 4.4 17:44:33 10° N 17:48:24 32° NE 17:48:24 32° NE
Starlink AQ 3.8 17:48:22 10° WSW 17:50:28 43° W 17:50:28 43° W
Cosmos-2242 2.8 17:49:17 10° N 17:53:40 79° E 17:57:58 10° SSE
Starlink AS 4.0 17:51:02 10° WSW 17:53:00 39° W 17:53:00 39° W
Starlink BA 4.1 17:51:13 10° WSW 17:53:11 39° W 17:53:11 39° W
Starlink AU 4.1 17:51:25 10° WSW 17:53:23 38° W 17:53:23 38° W
Starlink AT 4.1 17:51:38 10° WSW 17:53:35 38° W 17:53:35 38° W
Starlink BB 4.1 17:51:49 10° WSW 17:53:46 38° W 17:53:46 38° W
Starlink BC 4.1 17:52:03 10° WSW 17:53:58 38° W 17:53:58 38° W
USA 32 4.1 17:49:41 10° S 17:54:55 79° W 18:00:11 10° N
Starlink BK 4.1 17:52:14 10° WSW 17:54:10 37° W 17:54:10 37° W
Starlink AY 4.1 17:52:26 10° WSW 17:54:22 37° W 17:54:22 37° W
Starlink AW 4.2 17:52:38 10° WSW 17:54:33 37° W 17:54:33 37° W
Starlink BJ 4.2 17:52:48 10° WSW 17:54:42 37° W 17:54:42 37° W
Starlink AV 4.2 17:52:59 10° WSW 17:54:54 37° W 17:54:54 37° W
Cosmos 724 4.3 17:50:12 10° SSW 17:56:03 57° ESE 17:57:20 47° ENE
Cosmos 962 Rocket 4.5 17:49:57 10° S 17:56:03 83° W 18:02:16 10° N
Starlink BD 4.2 17:53:12 10° WSW 17:55:06 36° W 17:55:06 36° W
Starlink BE 4.2 17:53:23 10° WSW 17:55:18 37° W 17:55:18 37° W
Starlink BM 4.2 17:53:36 10° WSW 17:55:29 36° W 17:55:29 36° W
Starlink AX 4.2 17:53:48 10° WSW 17:55:40 36° W 17:55:40 36° W
Starlink BH 4.3 17:54:01 10° WSW 17:55:53 35° W 17:55:53 35° W
Starlink AZ 4.3 17:54:13 10° WSW 17:56:05 35° W 17:56:05 35° W
Starlink BG 4.3 17:54:26 10° WSW 17:56:17 35° W 17:56:17 35° W
Starlink BF 4.3 17:54:38 10° WSW 17:56:28 35° W 17:56:28 35° W
Starlink BL 4.3 17:54:46 10° WSW 17:56:38 35° W 17:56:38 35° W
Starlink AH 4.3 17:55:00 10° WSW 17:56:49 34° W 17:56:49 34° W
Starlink AC 4.3 17:55:11 10° WSW 17:57:01 34° W 17:57:01 34° W
Starlink X 4.4 17:55:23 10° WSW 17:57:12 34° W 17:57:12 34° W
Starlink AE 4.3 17:55:34 10° WSW 17:57:25 34° W 17:57:25 34° W
Starlink Z 4.4 17:55:48 10° WSW 17:57:35 33° W 17:57:35 33° W
DMSP B5D1-3 4.3 17:55:40 24° NNE 17:58:49 79° ESE 18:03:55 10° SSW
Starlink AK 4.4 17:56:01 10° WSW 17:57:49 33° W 17:57:49 33° W
Starlink AL 4.4 17:56:13 10° WSW 17:58:01 33° W 17:58:01 33° W
Starlink AD 4.4 17:56:23 10° WSW 17:58:10 33° W 17:58:10 33° W
Starlink Y 4.5 17:56:49 10° WSW 17:58:35 32° W 17:58:35 32° W
Starlink AG 4.5 17:57:01 10° WSW 17:58:46 32° W 17:58:46 32° W
Starlink W 4.5 17:57:10 10° WSW 17:58:57 33° W 17:58:57 33° W
Starlink AJ 4.5 17:57:23 10° WSW 17:59:08 32° W 17:59:08 32° W
COSMO-SKYMED 1 3.9 17:57:27 10° N 18:01:31 39° WNW 18:05:34 10° SW
NOSS 2-1 (C) 4.2 17:59:26 10° NW 18:04:36 78° NE 18:07:07 40° SE
IRS-1A Rocket 4.2 17:59:55 10° SSE 18:05:42 72° ENE 18:11:24 10° NNW
Cosmos 1953 Rocket 4.2 18:03:10 10° S 18:06:16 43° SSE 18:06:16 43° SSE
NOSS 2-1 (D) 4.2 18:03:13 10° NW 18:08:25 82° NE 18:10:54 41° SE
Cosmos 1727 Rocket 3.9 18:03:45 10° N 18:09:55 61° ENE 18:11:42 44° SE
ARGOS 4.4 18:14:41 28° NNE 18:14:41 28° NNE 18:17:20 10° N
Cosmos 1758 Rocket 3.9 18:09:00 10° SSW 18:13:16 62° WNW 18:14:38 40° NNW
Cosmos 2341 Rocket 4.4 18:10:53 10° SSW 18:17:13 65° WNW 18:23:34 10° N
MOS 1 4.1 18:23:44 71° SE 18:24:19 79° ENE 18:30:03 10° NNW
SL-8 Rocket 4.1 18:20:22 10° SSW 18:26:40 74° W 18:33:00 10° N
Cosmos 2237 Rocket 3.2 18:29:14 10° NW 18:34:32 43° WSW 18:39:48 10° S
Meteor 2-10 Rocket 4.1 18:33:15 10° NNW 18:38:34 56° W 18:43:38 10° S
ATLAS CENTAUR R/B 4.1 18:48:23 10° NNW 18:48:43 12° NNW 18:48:43 12° NNW
SL-16 R/B 2.7 18:48:19 10° NNW 18:52:42 54° NW 18:52:42 54° NW
Cosmos 2219 4.0 18:53:26 10° SW 18:58:48 45° NW 18:59:14 44° NW
ATLAS 5 CENTAUR R/B 4.2 19:05:25 10° NW 19:07:26 16° NNW 19:07:26 16° NNW
ADEOS Rocket 3.9 19:10:31 22° N 19:14:27 49° WNW 19:21:06 10° SW
H-2A R/B 4.2 19:18:09 18° NNW 19:18:09 18° NNW 19:19:32 10° NNW
Cosmos 2297 Rocket 3.4 19:11:58 10° SW 19:16:08 39° W 19:16:08 39° W
USA 267 4.2 19:23:15 40° NNW 19:23:15 40° NNW 19:28:01 10° WNW
Cosmos 2227 Rocket 3.7 19:23:52 10° WSW 19:27:16 31° W 19:27:16 31° W
ATLAS 5 CENTAUR R/B 4.0 19:37:09 10° NW 20:14:43 - SE 19:40:34 56° NW
